Time,TemperatureF,DewpointF,PressureIn,WindDirection,WindDirectionDegrees,WindSpeedMPH,WindSpeedGustMPH,Humidity,HourlyPrecipIn,Conditions,Clouds,dailyrainin,SolarRadiationWatts/m^2,SoftwareType,DateUTC
2013-08-16 01:21:00,48.0,25.0,-100.00,East,83,6.0,10.0,41,0.00,,,0.00,0.000000,,2013-08-16 07:21:00,
2013-08-16 01:31:00,48.0,25.0,-100.00,East,83,6.0,10.0,41,0.00,,,0.00,0.000000,,2013-08-16 07:31:00,
2013-08-16 01:42:00,48.0,25.0,-100.00,East,83,6.0,10.0,41,0.00,,,0.00,0.000000,,2013-08-16 07:42:00,
2013-08-16 01:52:00,48.0,25.0,-100.00,East,83,6.0,10.0,41,0.00,,,0.00,0.000000,,2013-08-16 07:52:00,
2013-08-16 02:21:00,47.0,25.0,-100.00,ENE,75,7.0,12.0,41,0.00,,,0.00,0.000000,,2013-08-16 08:21:00,
2013-08-16 02:32:00,47.0,25.0,-100.00,ENE,75,7.0,12.0,41,0.00,,,0.00,0.000000,,2013-08-16 08:32:00,
2013-08-16 02:42:00,47.0,25.0,-100.00,ENE,75,7.0,12.0,41,0.00,,,0.00,0.000000,,2013-08-16 08:42:00,
2013-08-16 02:52:00,47.0,25.0,-100.00,ENE,75,7.0,12.0,41,0.00,,,0.00,0.000000,,2013-08-16 08:52:00,
2013-08-16 03:21:00,46.0,25.0,-100.00,ENE,69,5.0,10.0,43,0.00,,,-99.99,0.000000,,2013-08-16 09:21:00,
2013-08-16 03:33:00,46.0,25.0,-100.00,ENE,69,5.0,10.0,43,0.00,,,-99.99,0.000000,,2013-08-16 09:33:00,
2013-08-16 03:42:00,46.0,25.0,-100.00,ENE,69,5.0,10.0,43,0.00,,,-99.99,0.000000,,2013-08-16 09:42:00,
2013-08-16 03:53:00,46.0,25.0,-100.00,ENE,69,5.0,10.0,43,0.00,,,-99.99,0.000000,,2013-08-16 09:53:00,
2013-08-16 04:23:00,47.0,25.0,-100.00,ENE,64,8.0,12.0,42,0.00,,,0.00,0.000000,,2013-08-16 10:23:00,
2013-08-16 04:33:00,47.0,25.0,-100.00,ENE,64,8.0,12.0,42,0.00,,,0.00,0.000000,,2013-08-16 10:33:00,
2013-08-16 04:42:00,47.0,25.0,-100.00,ENE,64,8.0,12.0,42,0.00,,,0.00,0.000000,,2013-08-16 10:42:00,
2013-08-16 04:52:00,47.0,25.0,-100.00,ENE,64,8.0,12.0,42,0.00,,,0.00,0.000000,,2013-08-16 10:52:00,
2013-08-16 05:21:00,46.0,24.0,-100.00,ENE,67,8.0,12.0,42,0.00,,,0.00,0.000000,,2013-08-16 11:21:00,
2013-08-16 05:32:00,46.0,24.0,-100.00,ENE,67,8.0,12.0,42,0.00,,,0.00,0.000000,,2013-08-16 11:32:00,
2013-08-16 05:42:00,46.0,24.0,-100.00,ENE,67,8.0,12.0,42,0.00,,,0.00,0.000000,,2013-08-16 11:42:00,
2013-08-16 05:52:00,46.0,24.0,-100.00,ENE,67,8.0,12.0,42,0.00,,,0.00,0.000000,,2013-08-16 11:52:00,
2013-08-16 06:21:00,45.0,25.0,-100.00,ENE,73,8.0,13.0,46,0.00,,,0.00,0.000000,,2013-08-16 12:21:00,
2013-08-16 06:32:00,45.0,25.0,-100.00,ENE,73,8.0,13.0,46,0.00,,,0.00,0.000000,,2013-08-16 12:32:00,
2013-08-16 06:42:00,45.0,25.0,-100.00,ENE,73,8.0,13.0,46,0.00,,,0.00,0.000000,,2013-08-16 12:42:00,
2013-08-16 06:52:00,45.0,25.0,-100.00,ENE,73,8.0,13.0,46,0.00,,,0.00,0.000000,,2013-08-16 12:52:00,
2013-08-16 07:22:00,45.0,25.0,-100.00,East,82,7.0,12.0,46,0.00,,,0.00,10.000000,,2013-08-16 13:22:00,
2013-08-16 07:32:00,45.0,25.0,-100.00,East,82,7.0,12.0,46,0.00,,,0.00,10.000000,,2013-08-16 13:32:00,
2013-08-16 07:42:00,45.0,25.0,-100.00,East,82,7.0,12.0,46,0.00,,,0.00,10.000000,,2013-08-16 13:42:00,
2013-08-16 07:53:00,45.0,25.0,-100.00,East,82,7.0,12.0,46,0.00,,,0.00,10.000000,,2013-08-16 13:53:00,
2013-08-16 09:56:00,67.0,31.0,-100.00,South,182,3.0,7.0,26,0.00,,,0.00,518.000000,,2013-08-16 15:56:00,
2013-08-16 10:56:00,68.0,33.0,-100.00,WSW,243,6.0,8.0,27,0.00,,,0.00,695.000000,,2013-08-16 16:56:00,
2013-08-16 11:28:00,68.0,33.0,-100.00,WSW,243,6.0,8.0,27,0.00,,,0.00,695.000000,,2013-08-16 17:28:00,
2013-08-16 11:34:00,68.0,33.0,-100.00,WSW,243,6.0,8.0,27,0.00,,,0.00,695.000000,,2013-08-16 17:34:00,
2013-08-16 11:47:00,68.0,33.0,-100.00,WSW,243,6.0,8.0,27,0.00,,,0.00,695.000000,,2013-08-16 17:47:00,
2013-08-16 12:28:00,74.0,23.0,-100.00,WSW,256,11.0,16.0,15,0.00,,,0.00,862.000000,,2013-08-16 18:28:00,
2013-08-16 12:50:00,-999.0,-99.9,-100.00,WSW,256,11.0,16.0,15,0.00,,,0.00,862.000000,,2013-08-16 18:50:00,
2013-08-16 13:25:00,76.0,18.0,-100.00,West,264,11.0,18.0,11,0.00,,,0.00,938.000000,,2013-08-16 19:25:00,
2013-08-16 13:36:00,76.0,18.0,-100.00,West,264,11.0,18.0,11,0.00,,,0.00,938.000000,,2013-08-16 19:36:00,
2013-08-16 13:46:00,76.0,18.0,-100.00,West,264,11.0,18.0,11,0.00,,,0.00,938.000000,,2013-08-16 19:46:00,
2013-08-16 13:55:00,76.0,18.0,-100.00,West,264,11.0,18.0,11,0.00,,,0.00,938.000000,,2013-08-16 19:55:00,
2013-08-16 14:23:00,78.0,17.0,-100.00,WSW,249,9.0,22.0,10,0.00,,,0.00,1024.000000,,2013-08-16 20:23:00,
2013-08-16 14:38:00,78.0,17.0,-100.00,WSW,249,9.0,22.0,10,0.00,,,0.00,1024.000000,,2013-08-16 20:38:00,
2013-08-16 14:44:00,78.0,17.0,-100.00,WSW,249,9.0,22.0,10,0.00,,,0.00,1024.000000,,2013-08-16 20:44:00,
2013-08-16 14:52:00,78.0,17.0,-100.00,WSW,249,9.0,22.0,10,0.00,,,0.00,1024.000000,,2013-08-16 20:52:00,
2013-08-16 15:40:00,-999.0,-99.9,-100.00,West,261,8.0,19.0,-999,0.00,,,0.00,877.000000,,2013-08-16 21:40:00,
2013-08-16 15:53:00,77.0,16.0,-100.00,West,261,8.0,19.0,10,0.00,,,0.00,877.000000,,2013-08-16 21:53:00,
2013-08-16 16:24:00,79.0,20.0,-100.00,NNW,347,6.0,16.0,11,0.00,,,0.00,848.000000,,2013-08-16 22:24:00,
2013-08-16 16:34:00,79.0,20.0,-100.00,NNW,347,6.0,16.0,11,0.00,,,0.00,848.000000,,2013-08-16 22:34:00,
2013-08-16 16:43:00,79.0,20.0,-100.00,NNW,347,6.0,16.0,11,0.00,,,0.00,848.000000,,2013-08-16 22:43:00,
2013-08-16 16:52:00,79.0,20.0,-100.00,NNW,347,6.0,16.0,11,0.00,,,0.00,848.000000,,2013-08-16 22:52:00,
2013-08-16 17:23:00,75.0,19.0,-100.00,West,270,9.0,15.0,12,0.00,,,0.00,563.000000,,2013-08-16 23:23:00,
2013-08-16 17:32:00,75.0,19.0,-100.00,West,270,9.0,15.0,12,0.00,,,0.00,563.000000,,2013-08-16 23:32:00,
2013-08-16 17:42:00,75.0,19.0,-100.00,West,270,9.0,15.0,12,0.00,,,0.00,563.000000,,2013-08-16 23:42:00,
2013-08-16 17:52:00,75.0,19.0,-100.00,West,270,9.0,15.0,12,0.00,,,0.00,563.000000,,2013-08-16 23:52:00,
2013-08-16 18:21:00,77.0,20.0,-100.00,WSW,254,7.0,22.0,12,0.00,,,0.00,471.000000,,2013-08-17 00:21:00,
2013-08-16 18:33:00,77.0,20.0,-100.00,WSW,254,7.0,22.0,12,0.00,,,0.00,471.000000,,2013-08-17 00:33:00,
2013-08-16 18:42:00,77.0,20.0,-100.00,WSW,254,7.0,22.0,12,0.00,,,0.00,471.000000,,2013-08-17 00:42:00,
2013-08-16 18:51:00,77.0,20.0,-100.00,WSW,254,7.0,22.0,12,0.00,,,0.00,471.000000,,2013-08-17 00:51:00,
2013-08-16 19:21:00,74.0,22.0,-100.00,West,270,5.0,16.0,14,-99.99,,,0.00,275.000000,,2013-08-17 01:21:00,
2013-08-16 19:32:00,74.0,22.0,-100.00,West,270,5.0,16.0,14,-99.99,,,0.00,275.000000,,2013-08-17 01:32:00,
2013-08-16 19:42:00,74.0,22.0,-100.00,West,270,5.0,16.0,14,-99.99,,,0.00,275.000000,,2013-08-17 01:42:00,
2013-08-16 19:52:00,74.0,22.0,-100.00,West,270,5.0,16.0,14,-99.99,,,0.00,275.000000,,2013-08-17 01:52:00,
2013-08-16 20:21:00,68.0,22.0,-100.00,NNE,29,2.0,7.0,17,-99.99,,,0.00,87.000000,,2013-08-17 02:21:00,
2013-08-16 20:32:00,68.0,22.0,-100.00,NNE,29,2.0,7.0,17,-99.99,,,0.00,87.000000,,2013-08-17 02:32:00,
2013-08-16 20:42:00,68.0,22.0,-100.00,NNE,29,2.0,7.0,17,-99.99,,,0.00,87.000000,,2013-08-17 02:42:00,
2013-08-16 20:51:00,68.0,22.0,-100.00,NNE,29,2.0,7.0,17,-99.99,,,0.00,87.000000,,2013-08-17 02:51:00,
2013-08-16 21:22:00,61.0,27.0,-100.00,ENE,74,5.0,7.0,27,-99.99,,,0.00,2.000000,,2013-08-17 03:22:00,
2013-08-16 21:35:00,61.0,27.0,-100.00,ENE,74,5.0,7.0,27,-99.99,,,0.00,2.000000,,2013-08-17 03:35:00,
2013-08-16 21:43:00,61.0,27.0,-100.00,ENE,74,5.0,7.0,27,-99.99,,,0.00,2.000000,,2013-08-17 03:43:00,
2013-08-16 21:53:00,61.0,27.0,-100.00,ENE,74,5.0,7.0,27,-99.99,,,0.00,2.000000,,2013-08-17 03:53:00,
2013-08-16 22:23:00,58.0,27.0,-100.00,ENE,66,6.0,9.0,30,0.00,,,0.00,0.000000,,2013-08-17 04:23:00,
2013-08-16 22:32:00,58.0,27.0,-100.00,ENE,66,6.0,9.0,30,0.00,,,0.00,0.000000,,2013-08-17 04:32:00,
2013-08-16 22:44:00,58.0,27.0,-100.00,ENE,66,6.0,9.0,30,0.00,,,0.00,0.000000,,2013-08-17 04:44:00,
2013-08-16 22:53:00,58.0,27.0,-100.00,ENE,66,6.0,9.0,30,0.00,,,0.00,0.000000,,2013-08-17 04:53:00,
2013-08-16 23:22:00,53.0,29.0,-100.00,East,79,7.0,10.0,39,0.00,,,0.00,0.000000,,2013-08-17 05:22:00,
2013-08-16 23:32:00,53.0,29.0,-100.00,East,79,7.0,10.0,39,0.00,,,0.00,0.000000,,2013-08-17 05:32:00,
2013-08-16 23:42:00,53.0,29.0,-100.00,East,79,7.0,10.0,39,0.00,,,0.00,0.000000,,2013-08-17 05:42:00,
2013-08-16 23:51:00,53.0,29.0,-100.00,East,79,7.0,10.0,39,0.00,,,0.00,0.000000,,2013-08-17 05:51:00,